ASIASAT 3S (25657 NORAD) Tracking and Keplerian Element Data

This shows tracking and keplerian element data for the satellite.

Feedback or suggestion? Click here.




ElementValue
Catalog25657
NameASIASAT 3S
Epoch Orbit8311
Epoch Day327.71037115
Epoch Year2021
RAAN68.9643
Inclination5.9402
Eccentricity0.0001527
Argument of Perigee104.3583
Mean Anonmoly274.1971
Mean Motion0.9915197
Decay Rate-2.56E-06
L11 25657U 99013A 21327.71037115 -.00000256 00000+0 00000+0 0 9999
L22 25657 5.9402 68.9643 0001527 104.3583 274.1971 0.99151970 83117



Live tracking and technical data element details for ASIASAT 3S (NORAD 25657). ASIASAT 3S can be tracked NOW for your location showing map with azimuth and elevation plus other details from your city location.







IsCatalogInMostPopularTable: catalog: 25657, numindb: 471
Update: records affected: 1



GetName: 25657 ASIASAT 3S

Hit Count: updated at: Sat, 06 Dec 2025 17:36:56 GMT